Hourly Data Report for June 07, 2020

OTTAWA INTL A
ONTARIO
Current Station Operator: NAVCAN

45°19'00.000" N
75°40'00.000" W
114.90 m
6106001
71628
YOW

Download Data

Hourly Data (June 2020)
Hourly Data Report for June 7, 2020
TIME
LST
Temp Definition
°C
Dew Point Definition
°C
Rel Hum Definition
%
Precip. Amount Definition
mm

Wind Dir Definition
10's deg

Wind Spd Definition
km/h
Visibility Definition
km
Stn Press Definition
kPa
Hmdx Definition


Wind Chill Definition


Weather Definition


00:00 13.9 7.7 66   33 17 24.1 100.03     LegendNANA
01:00 13.1 7.4 68   34 17 24.1 100.06     Clear
02:00 12.6 6.9 68   34 21 24.1 100.09     LegendNANA
03:00 11.8 6.8 71   34 17 24.1 100.09     LegendNANA
04:00 11.0 6.8 75   34 13 24.1 100.10     Clear
05:00 11.1 6.9 75   33 23 24.1 100.16     LegendNANA
06:00 12.4 6.7 68   32 23 24.1 100.25     LegendNANA
07:00 14.0 7.2 63   33 22 24.1 100.29     Clear
08:00 15.4 6.7 56   32 21 24.1 100.31     LegendNANA
09:00 17.2 6.5 49   32 22 24.1 100.28     LegendNANA
10:00 18.8 5.3 41   1 19 24.1 100.26     Mainly Clear
11:00 19.5 4.4 36   35 12 24.1 100.31     LegendNANA
12:00 19.3 5.5 40   30 21 24.1 100.32     LegendNANA
13:00 20.4 5.5 37   31 28 24.1 100.27     Mainly Clear
14:00 20.1 5.2 37   34 22 24.1 100.23     LegendNANA
15:00 19.5 4.4 37   33 22 24.1 100.19     LegendNANA
16:00 21.2 3.8 31   33 17 24.1 100.18     Mainly Clear
17:00 20.7 3.2 31   29 24 24.1 100.19     LegendNANA
18:00 20.0 3.0 32   35 20 24.1 100.17     LegendNANA
19:00 19.0 3.4 35   32 20 24.1 100.19     Clear
20:00 17.3 3.9 41   32 12 24.1 100.23     LegendNANA
21:00 16.6 3.9 43   35 10 24.1 100.26     LegendNANA
22:00 15.7 4.4 47   34 11 24.1 100.28     Clear
23:00 15.1 3.8 46   34 14 24.1 100.24     LegendNANA

Notes on Data Quality.

Legend

  • E = Estimated
  • M = Missing
  • NA = Not Available*
  • [empty] = Indicates an unobserved value
Date modified: